[[{"header":{"parameterUnit":"m.s-1","parameterCategory":1,"la1":30.2991,"la2":30.254,"lo1":-89.0895,"lo2":-89.0444,"dy":0.0017,"dx":0.0017,"nx":28,"ny":28,"refTime":"2025-06-16T03:00:00:Z","depth":0,"parameterNumber":2,"parameterNumberName":"U-component_of_WINDS"},"data":[0,0,0,0,0,0,0,0,0,0,0,0,0,0,0,0,0,0,0,0,0,0,0,0,0,0,0,0,0,0,0,0,0,0,0,0,0,0,0,0,0,0,0,0,0,0,0,0,0,0,0,0,0,0,0,0,0,0,1.6881,1.6882,0,1.6922,1.6923,1.6923,1.691,1.6909,1.6908,1.6907,1.6946,1.6948,1.695,0,0,0,0,0,0,0,0,0,0,0,0,0,1.6786,1.6788,1.6881,1.6882,1.6882,1.6922,1.6923,1.6923,1.691,1.6909,1.6908,1.6907,1.6945,1.6948,1.695,0,0,0,0,0,0,0,0,0,0,0,0,0,1.6827,1.6789,1.6881,1.688,1.6881,1.6922,1.6923,1.6923,1.691,1.6909,1.6907,1.6906,1.6945,1.6947,1.695,1.6994,0,0,1.6959,1.696,0,0,0,0,0,0,0,0,1.6825,1.6831,1.688,1.688,1.6881,1.691,1.6904,1.6947,1.691,1.6899,1.6907,1.6905,1.6935,1.6938,1.6949,1.6996,1.6997,1.6959,1.6961,1.6962,1.6963,0,0,0,0,0,0,0,1.6822,1.6829,1.6897,1.6881,1.6881,1.6876,1.6881,1.6912,1.6923,1.69,1.6899,1.6904,1.6935,1.6946,1.695,1.6998,1.6959,1.6961,1.6963,1.6964,1.7079,1.7081,0,0,0,0,0,0,1.682,1.6827,1.6896,1.6898,1.6849,1.6879,1.6884,1.6902,1.6923,1.6925,1.6905,1.6903,1.6942,1.6946,1.6951,1.7001,1.6962,1.6964,1.6966,1.7078,1.708,1.7081,0,0,0,0,0,0,1.6818,1.6826,1.6894,1.6862,1.6871,1.6882,1.6902,1.6903,1.6914,1.6927,1.6929,1.6915,1.6941,1.6947,1.6983,1.7002,1.6966,1.6968,1.7076,1.7079,1.708,1.7103,0,0,0,0,0,0,1.6815,1.6825,1.6843,1.6863,1.6873,1.6927,1.6903,1.6905,1.692,1.6918,1.6937,1.6939,1.6941,1.6979,1.6985,1.7005,1.697,1.7075,1.7077,1.708,1.7101,1.7106,1.711,0,0,0,0,0,1.6812,1.6848,1.6844,1.6853,1.6895,1.6928,1.6933,1.6935,1.6921,1.6938,1.6946,1.6938,1.7,1.6982,1.699,1.7011,1.7073,1.7077,1.708,1.7098,1.7105,1.711,0,0,0,0,0,0,1.6829,1.685,1.6847,1.6891,1.6908,1.6926,1.6947,1.6942,1.6963,1.696,1.6961,1.6965,1.7002,1.701,1.6991,1.7053,1.7034,1.7039,1.7046,1.7052,1.7056,1.7053,1.6973,0,0,0,0,0,1.6838,1.6865,1.6881,1.6918,1.6927,1.6936,1.695,1.695,1.6968,1.6975,1.6985,1.7001,1.7024,1.7039,1.7061,1.7102,1.7105,1.7121,1.7125,1.7129,1.7132,1.7152,1.7159,1.7091,1.7091,1.7091,0,0,1.6857,1.6872,1.6888,1.6922,1.6935,1.696,1.6942,1.697,1.6988,1.6978,1.7012,1.7021,1.7039,1.7077,1.7094,1.7085,1.7152,1.7133,1.7136,1.7137,1.7156,1.7163,1.7168,1.7094,1.7093,1.7093,0,0,1.6904,1.6919,1.695,1.6964,1.6984,1.6989,1.6997,1.7016,1.7021,1.7055,1.7048,1.7069,1.7109,1.7121,1.7132,1.7182,1.7175,1.719,1.7213,1.7233,1.7238,1.7243,1.7258,1.7264,1.7193,1.7193,1.7193,0,1.6924,1.6963,1.6966,1.6994,1.7008,1.7002,1.7032,1.7045,1.7071,1.708,1.707,1.7118,1.713,1.717,1.7182,1.7192,1.7199,1.7186,1.7237,1.7242,1.7246,1.7261,1.7267,1.7195,1.7195,1.7195,1.7194,0,1.6985,1.7012,1.7035,1.706,1.7077,1.7106,1.7112,1.7129,1.7127,1.7133,1.7167,1.7181,1.7204,1.7214,1.7213,1.7253,1.7247,1.7237,1.7218,1.7254,1.7268,1.7273,1.7197,1.7197,1.7196,1.7196,0,0,1.7043,1.707,1.7078,1.7088,1.711,1.713,1.7158,1.7182,1.7194,1.7213,1.7234,1.7268,1.7259,1.7272,1.7272,1.7289,1.7325,1.7277,1.7278,1.7283,1.7366,1.7372,1.7378,1.7321,1.7322,1.7323,1.7364,0,1.7089,1.7139,1.7143,1.7187,1.721,1.7204,1.7228,1.7243,1.7249,1.7269,1.7275,1.7298,1.7285,1.7293,1.731,1.7317,1.7341,1.7314,1.7338,1.7339,1.7332,1.7386,1.7392,1.743,1.737,1.7371,1.7371,0,1.715,1.717,1.7217,1.7233,1.7243,1.7265,1.7285,1.7305,1.7321,1.7324,1.7338,1.7336,1.7362,1.7344,1.7379,1.736,1.7371,1.7375,1.7377,1.7377,1.7356,1.7385,1.7443,1.7448,1.738,1.7379,1.7379,0,1.7184,1.7223,1.7255,1.7265,1.7286,1.73,1.7309,1.7324,1.7338,1.7356,1.7364,1.7385,1.7395,1.7411,1.7413,1.74,1.7447,1.7429,1.7448,1.7448,1.7457,1.7456,1.7515,1.7468,1.7468,1.7468,1.7468,0,1.7233,1.7262,1.727,1.729,1.732,1.7324,1.7353,1.7361,1.7375,1.7394,1.7391,1.7409,1.7412,1.7431,1.7433,1.746,1.7466,1.7467,1.7467,1.7466,1.7466,1.7471,1.7468,1.7469,1.7469,1.7469,1.7468,0,1.7276,1.7283,1.7317,1.7334,1.7339,1.7361,1.7374,1.7392,1.7398,1.7423,1.7429,1.7437,1.7459,1.7463,1.7489,1.749,1.7522,1.752,1.7516,1.7515,1.7533,1.7531,1.7596,1.7603,1.7554,1.7554,1.7555,0,1.7306,1.7327,1.7346,1.736,1.7369,1.7391,1.7405,1.7408,1.7422,1.7441,1.7456,1.7477,1.7494,1.7529,1.7536,1.7555,1.7552,1.7574,1.7555,1.7553,1.755,1.7547,1.7548,1.7577,1.7577,1.7578,1.7578,0,1.7357,1.736,1.738,1.7401,1.7417,1.7433,1.7449,1.746,1.7465,1.748,1.7503,1.7516,1.7542,1.7562,1.7581,1.7589,1.7583,1.7584,1.7589,1.7587,1.7583,1.7583,1.7524,1.7582,1.7582,1.7582,1.7581,1.7581,1.7393,1.7411,1.7426,1.7448,1.746,1.7475,1.7492,1.7499,1.7518,1.754,1.7541,1.7564,1.7578,1.7603,1.7612,1.7629,1.7622,1.763,1.7632,1.7633,1.7633,1.7583,1.7633,1.7633,1.7633,1.7633,1.7633,0,1.7442,1.7452,1.7472,1.7493,1.751,1.7506,1.7522,1.7536,1.7557,1.7571,1.7587,1.7612,1.7631,1.764,1.7659,1.7671,1.7669,1.7675,1.7673,1.7675,1.764,1.7632,1.7677,1.7677,1.7677,1.7677,1.7677,1.7677,1.7469,1.7498,1.7502,1.7536,1.7546,1.7569,1.7579,1.7591,1.7602,1.763,1.7646,1.7652,1.7663,1.7683,1.77,1.7702,1.7708,1.7715,1.7715,1.7682,1.7677,1.7673,1.7666,1.7717,1.7717,1.7749,1.7749,1.7749]},{"header":{"parameterUnit":"m.s-1","parameterCategory":1,"la1":30.2991,"la2":30.254,"lo1":-89.0895,"lo2":-89.0444,"dy":0.0017,"dx":0.0017,"nx":28,"ny":28,"refTime":"2025-06-16T03:00:00:Z","depth":0,"parameterNumber":3,"parameterNumberName":"V-component_of_WINDS"},"data":[0,0,0,0,0,0,0,0,0,0,0,0,0,0,0,0,0,0,0,0,0,0,0,0,0,0,0,0,0,0,0,0,0,0,0,0,0,0,0,0,0,0,0,0,0,0,0,0,0,0,0,0,0,0,0,0,0,0,4.0521,4.0522,0,4.0583,4.0584,4.0584,4.0524,4.0522,4.052,4.0518,4.0577,4.0581,4.0585,0,0,0,0,0,0,0,0,0,0,0,0,0,4.0346,4.0349,4.0521,4.0522,4.0523,4.0583,4.0584,4.0584,4.0525,4.0522,4.0519,4.0516,4.0576,4.0581,4.0585,0,0,0,0,0,0,0,0,0,0,0,0,0,4.0416,4.035,4.0521,4.05,4.0499,4.0583,4.0584,4.0585,4.0526,4.0522,4.0518,4.0515,4.0575,4.058,4.0586,4.0692,0,0,4.0603,4.0606,0,0,0,0,0,0,0,0,4.0412,4.0422,4.0502,4.0502,4.0501,4.0542,4.0544,4.0621,4.0526,4.0515,4.0517,4.0513,4.0568,4.0574,4.0594,4.0695,4.0697,4.0604,4.0607,4.061,4.0611,0,0,0,0,0,0,0,4.0407,4.0419,4.0545,4.0504,4.0503,4.0486,4.0492,4.0558,4.0561,4.0516,4.0512,4.052,4.0567,4.0588,4.0595,4.0698,4.0604,4.0609,4.0612,4.0614,4.0885,4.0889,0,0,0,0,0,0,4.0405,4.0416,4.0543,4.0547,4.0447,4.0492,4.0499,4.0533,4.056,4.0561,4.0523,4.0517,4.058,4.0588,4.0597,4.072,4.061,4.0615,4.0618,4.0882,4.0886,4.089,0,0,0,0,0,0,4.0402,4.0417,4.0541,4.048,4.0495,4.0499,4.0537,4.0536,4.0557,4.0566,4.0565,4.0545,4.0578,4.0589,4.0668,4.0721,4.0618,4.0623,4.0877,4.0883,4.0888,4.0969,0,0,0,0,0,0,4.0397,4.0416,4.0458,4.0482,4.0498,4.0614,4.0541,4.0539,4.0567,4.056,4.0586,4.0586,4.0576,4.066,4.0674,4.0727,4.0627,4.0872,4.088,4.0886,4.0962,4.0977,4.099,0,0,0,0,0,4.0391,4.0479,4.0461,4.0477,4.0551,4.0617,4.0626,4.0613,4.0572,4.0613,4.0618,4.0586,4.0714,4.0669,4.0684,4.074,4.0869,4.0878,4.0886,4.0956,4.0974,4.099,0,0,0,0,0,0,4.0461,4.0482,4.0462,4.0561,4.0587,4.0607,4.0658,4.0634,4.0672,4.0664,4.0645,4.0651,4.0735,4.0745,4.0695,4.0842,4.0784,4.0796,4.0832,4.085,4.0863,4.0858,4.0632,0,0,0,0,0,4.0489,4.0542,4.0556,4.0641,4.0656,4.0655,4.0683,4.067,4.0697,4.0708,4.0719,4.0745,4.079,4.0821,4.0863,4.0963,4.0966,4.1009,4.1023,4.1034,4.1044,4.1095,4.1113,4.0918,4.0918,4.0918,0,0,4.0545,4.0563,4.0597,4.0656,4.0675,4.0728,4.0665,4.0724,4.0763,4.0716,4.0792,4.0801,4.0828,4.0917,4.0957,4.0928,4.1099,4.1045,4.1054,4.1058,4.1105,4.1124,4.114,4.0924,4.0923,4.0922,0,0,4.0674,4.0694,4.0766,4.0786,4.0816,4.0814,4.0832,4.0854,4.0858,4.0934,4.0899,4.0943,4.1023,4.1043,4.1064,4.1197,4.1168,4.1211,4.1285,4.1334,4.1349,4.1362,4.1407,4.1424,4.1222,4.1222,4.1222,0,4.074,4.0821,4.0806,4.0867,4.0892,4.0853,4.0924,4.0944,4.0986,4.1003,4.0971,4.1068,4.1084,4.1176,4.1208,4.1227,4.1244,4.1208,4.1348,4.1362,4.1374,4.1416,4.1434,4.1227,4.1226,4.1226,4.1225,0,4.0898,4.0954,4.1008,4.105,4.1081,4.1147,4.114,4.1173,4.1157,4.1158,4.1233,4.1251,4.1295,4.1316,4.1301,4.1405,4.1386,4.1351,4.1293,4.1398,4.1437,4.1454,4.1234,4.1232,4.1231,4.123,0,0,4.1076,4.1106,4.1126,4.1142,4.1171,4.1213,4.1275,4.1319,4.1346,4.1376,4.1426,4.1493,4.146,4.1484,4.1471,4.1514,4.1615,4.1474,4.1474,4.1497,4.1726,4.1751,4.177,4.1596,4.1599,4.1602,4.1723,0,4.1204,4.1313,4.13,4.1404,4.1453,4.1415,4.1469,4.1491,4.1493,4.1533,4.1535,4.1582,4.1537,4.155,4.1591,4.1594,4.166,4.1585,4.164,4.1642,4.1633,4.1791,4.1818,4.1932,4.1739,4.1742,4.1743,0,4.1369,4.1403,4.1512,4.153,4.155,4.1599,4.1636,4.1676,4.1699,4.1697,4.1722,4.17,4.176,4.1701,4.1782,4.1731,4.1752,4.1757,4.1761,4.1764,4.1698,4.1797,4.1969,4.1985,4.1768,4.1766,4.1764,0,4.1483,4.1558,4.1631,4.1647,4.1671,4.1705,4.1716,4.1736,4.1762,4.1793,4.1809,4.1848,4.1868,4.1897,4.1885,4.1844,4.1967,4.1908,4.1965,4.1966,4.1992,4.199,4.2168,4.2009,4.2009,4.2009,4.2008,0,4.1627,4.1695,4.1683,4.1728,4.1801,4.1784,4.1857,4.1863,4.188,4.1924,4.1893,4.1935,4.1918,4.1957,4.1949,4.2015,4.2025,4.2023,4.202,4.2025,4.2025,4.2038,4.2029,4.2013,4.2012,4.2011,4.2011,0,4.1768,4.1763,4.184,4.1855,4.186,4.1913,4.1925,4.1966,4.1965,4.2021,4.2033,4.203,4.2075,4.2066,4.2116,4.211,4.2193,4.218,4.2185,4.2181,4.2238,4.2232,4.2429,4.2452,4.228,4.2282,4.2283,0,4.1859,4.191,4.193,4.1957,4.1971,4.2016,4.2041,4.2025,4.2053,4.2081,4.2118,4.216,4.2193,4.2266,4.2268,4.2305,4.2292,4.2358,4.2297,4.23,4.229,4.2287,4.229,4.237,4.2372,4.2374,4.2375,0,4.2021,4.2015,4.2054,4.2091,4.2122,4.2151,4.2176,4.22,4.2186,4.2218,4.2264,4.2289,4.2339,4.238,4.2414,4.2423,4.2396,4.2394,4.2409,4.2414,4.2414,4.2412,4.2216,4.2389,4.2388,4.2387,4.2386,4.2386,4.2138,4.218,4.22,4.2243,4.226,4.2283,4.2322,4.2325,4.2362,4.2402,4.239,4.2441,4.2459,4.2502,4.2515,4.2553,4.2528,4.2551,4.2556,4.2561,4.2567,4.2409,4.256,4.2559,4.2559,4.2559,4.2558,0,4.2296,4.2306,4.2346,4.2382,4.2415,4.2387,4.2412,4.2441,4.2487,4.2507,4.2539,4.2589,4.2629,4.2633,4.2669,4.2699,4.2687,4.2709,4.2705,4.2707,4.2588,4.2571,4.2717,4.2717,4.2717,4.2717,4.2717,4.2717,4.2382,4.2451,4.2447,4.2522,4.2531,4.2581,4.2598,4.2618,4.2633,4.2691,4.2724,4.2726,4.2739,4.2775,4.2809,4.2809,4.2823,4.2849,4.2844,4.2732,4.2716,4.2701,4.2684,4.2852,4.2853,4.2959,4.296,4.2961]}]]